Tracking 35280 objects as of 7-Sep-2026
HD Live streaming from Space Station
objects crossing your sky now

DMSP 5D-3 F16 DEB

Track DMSP 5D-3 F16 DEB now!
10-day predictions


NORAD ID: 28056
Int'l Code: 2003-048C
Launch date: October 18, 2003
Source: United States (US)
Launch site: AIR FORCE WESTERN TEST RANGE (AFWTR)

Note: This is SATELLITE DEBRIS
Your satellite tracking list
Your tracking list is empty




NASA's NSSDC Master Catalog

Two Line Element Set (TLE):
1 28056U 03048C   26250.53292093  .00001207  00000-0  45825-3 0  9991
2 28056  98.7913 265.8936 0000997 311.3297  48.7801 14.32949709186247
Source of the keplerian elements: AFSPC